Location: ???????
(55.3754°N, 39.3545°E)
Time: 10:12:15
(UTC+00:00)

Cosmos 968 Rocket - Pass Details

Date: 14 April 2026
Orbit: 735 x 766 km, 74.0° (Epoch: 18 May)

Event Time Altitude Azimuth Distance (km) Brightness Sun altitude
Rises 21:12:14 0° 332° (NNW) 3,213 7.8 -24.9°
Reaches altitude 10° 21:14:40 10° 338° (NNW) 2,290 6.9 -24.9°
Maximum altitude 21:19:45 52° 55° (NE) 938 4.0 -25.0°
Enters shadow 21:21:11 40° 103° (ESE) 1,112 4.2 -25.0°
